This demonstration page uses our WeatherBlox Daily Observations layout. Learn more.

Left ArrowRight Arrow

44.31136, -96.79839

Hourly Observations for October 11, 2019

Temp ( °F °C ) Dew Point ( °F °C ) Humidity (%) Winds ( mph kmh ) Pressure ( in mb ) Visibility ( mi km ) Precip ( " mm )
12:56 am 00:56 Cloudy with Light Wintry Mix 32 0 31 -0.6 96 96 WNW 23 37 29.95 1014 10 16 0.00 0.00
1:56 am 01:56 Cloudy with Light Wintry Mix 32 0 30 -1.1 92 92 WNW 23 37 29.95 1014 10 16 0.00 0.00
2:54 am 02:54 Cloudy with Light Wintry Mix 32 0 30 -1 93 93 WNW 22 35 29.94 1014 8 13 0.00 0.00
2:56 am 02:56 Cloudy with Light Wintry Mix 32 0 31 -0.6 96 96 W 24 39 29.94 1014 8 13 0.00 0.00
3:03 am 03:03 Cloudy with Light Wintry Mix 30 -1 30 -1 100 100 WNW 23 37 29.94 1014 10 16 0.00 0.00
3:44 am 03:44 Cloudy 30 -1 28 -2 93 93 WNW 23 37 29.94 1014 10 16 0.00 0.00
3:56 am 03:56 Cloudy 31 -0.6 29 -1.7 92 92 WNW 21 33 29.95 1014 10 16 0.00 0.00
4:56 am 04:56 Cloudy 30 -1.1 28 -2.2 92 92 WNW 24 39 29.95 1014 10 16 0.00 0.00
5:56 am 05:56 Cloudy 30 -1.1 29 -1.7 96 96 W 23 37 29.96 1015 9 14 0.00 0.00
6:40 am 06:40 Windy with Snow Likely 30 -1 28 -2 93 93 W 20 31 29.94 1014 9 14 0.00 0.00
6:56 am 06:56 Windy with Snow Likely 30 -1.1 28 -2.2 92 92 W 23 37 29.95 1014 9 14 0.00 0.00
7:22 am 07:22 Windy with Snow Likely 30 -1 28 -2 93 93 W 25 41 29.93 1014 5 8 0.00 0.00
7:56 am 07:56 Windy with Snow Likely 30 -1.1 28 -2.2 92 92 W 25 41 29.94 1014 5 8 0.00 0.00
8:56 am 08:56 Windy with Snow Likely 30 -1.1 29 -1.7 96 96 W 28 44 29.93 1014 4 6 0.00 0.00
9:13 am 09:13 Windy with Snow Likely 30 -1 28 -2 93 93 W 25 41 29.92 1013 2 3 0.00 0.00
9:27 am 09:27 Windy with Snow Likely 30 -1 28 -2 93 93 W 29 46 29.92 1013 3 5 0.00 0.00
9:39 am 09:39 Windy with Snow Likely 30 -1 28 -2 93 93 W 23 37 29.93 1014 2 3 0.00 0.00
9:56 am 09:56 Windy with Snow Likely 31 -0.6 29 -1.7 92 92 W 28 44 29.94 1014 3 5 0.00 0.00
10:05 am 10:05 Windy with Snow Likely 30 -1 28 -2 93 93 W 24 39 29.93 1014 2 3 0.00 0.00
10:36 am 10:36 Windy with Snow Likely 30 -1 28 -2 93 93 W 30 48 29.92 1013 2 3 0.00 0.00
10:44 am 10:44 Windy with Snow Likely 30 -1 28 -2 93 93 W 25 41 29.92 1013 3 5 0.00 0.00
10:56 am 10:56 Cloudy with Light Wintry Mix 31 -0.6 29 -1.7 92 92 W 25 41 29.93 1014 9 14 0.00 0.00
11:28 am 11:28 Windy with Snow Likely 30 -1 30 -1 100 100 W 31 50 29.92 1013 2 3 0.00 0.00
11:56 am 11:56 Windy with Snow Likely 32 0 30 -1.1 92 92 W 28 44 29.92 1013 3 5 0.00 0.00
12:56 pm 12:56 Windy with Snow Likely 32 0 30 -1.1 92 92 W 29 46 29.93 1014 4 6 0.00 0.00
1:18 pm 13:18 Windy with Snow Likely 30 -1 28 -2 93 93 W 26 43 29.93 1014 2 3 0.00 0.00
1:30 pm 13:30 Windy with Snow Likely 30 -1 28 -2 93 93 W 28 44 29.93 1014 3 5 0.00 0.00
1:56 pm 13:56 Windy with Snow Likely 31 -0.6 30 -1.1 96 96 W 26 43 29.94 1014 3 5 0.00 0.00
2:56 pm 14:56 Windy with Snow Likely 32 0 29 -1.7 88 88 W 26 43 29.94 1014 4 6 0.00 0.00
3:56 pm 15:56 Cloudy with Light Wintry Mix 31 -0.6 28 -2.2 89 89 W 31 50 29.94 1014 6 10 0.00 0.00
4:56 pm 16:56 Windy with Snow Likely 31 -0.6 28 -2.2 89 89 W 32 52 29.96 1014 6 10 0.00 0.00
5:14 pm 17:14 Windy with Snow Likely 30 -1 28 -2 93 93 W 25 41 29.94 1014 6 10 0.00 0.00
5:56 pm 17:56 Cloudy with Light Wintry Mix 31 -0.6 28 -2.2 89 89 W 29 46 29.96 1014 8 13 0.00 0.00
6:23 pm 18:23 Cloudy with Light Wintry Mix 30 -1 28 -2 93 93 W 28 44 29.94 1014 9 14 0.00 0.00
6:29 pm 18:29 Cloudy with Light Wintry Mix 30 -1 28 -2 93 93 W 23 37 29.95 1014 9 14 0.00 0.00
6:56 pm 18:56 Cloudy with Light Wintry Mix 31 -0.6 28 -2.2 89 89 W 26 43 29.95 1014 10 16 0.00 0.00
7:42 pm 19:42 Windy with Snow Likely 30 -1 27 -3 86 86 W 23 37 29.94 1014 10 16 0.00 0.00
7:56 pm 19:56 Cloudy with Light Wintry Mix 32 0 27 -2.8 82 82 W 29 46 29.94 1014 9 14 0.00 0.00
8:56 pm 20:56 Cloudy 32 0 26 -3.3 79 79 W 26 43 29.93 1014 10 16 0.00 0.00
9:56 pm 21:56 Mostly Cloudy 31 -0.6 26 -3.3 82 82 W 26 43 29.93 1013 10 16 0.00 0.00
10:56 pm 22:56 Mostly Clear 30 -1.1 25 -3.9 82 82 W 25 41 29.91 1013 10 16 0.00 0.00
11:56 pm 23:56 Clear 29 -1.7 25 -3.9 85 85 W 21 33 29.89 1012 10 16 0.00 0.00

Powered by AerisWeather